Location: Unspecified
(0.0000°N, 0.0000°E)
Time: 12:25:20
(UTC+00:00)

Tiangong - Pass Details

Date: 30 November 2021
Orbit: 379 x 385 km, 41.5° (Epoch: 08 December)

Event Time Altitude Azimuth Distance (km) Brightness Sun altitude
Rises 18:52:56 0° 239° (WSW) 2,252 6.8 -14.8°
Reaches altitude 10° 18:55:07 10° 249° (WSW) 1,397 5.3 -15.4°
Maximum altitude 18:58:01 34° 316° (NW) 650 2.4 -16.0°
Enters shadow 18:59:24 22° 4° (N) 875 2.6 -16.3°
